"2010-01-05 00:00:00",1564124,6.891,166,5.863,1.021,4.903,100.2171,-0.146,1.104,28.94,0,109.5,13.56,0.61,128.0
"2010-01-05 00:00:30",1564125,6.681,166,5.898,1.094,4.676,100.2097,-0.165,1.089,28.85,0,109.5,13.56,0.59,128.0
"2010-01-05 00:01:00",1564126,6.641,165.6,5.676,1.143,4.635,100.1998,-0.19,1.044,28.7,0,109.5,13.56,0.56,127.6
"2010-01-05 00:01:30",1564127,6.521,164.6,5.805,1.198,4.638,100.1987,-0.193,1.086,28.67,0,109.5,13.56,0.56,126.6
"2010-01-05 00:02:00",1564128,6.871,165.5,5.682,1.083,5.086,100.1987,-0.193,1.089,28.58,0,109.5,13.56,0.56,127.5
"2010-01-05 00:02:30",1564129,6.745,165.6,5.774,1.099,4.752,100.2004,-0.189,1.068,28.56,0,109.5,13.57,0.56,127.6
"2010-01-05 00:03:00",1564130,6.375,164.8,6.083,1.202,3.75,100.2029,-0.182,1.068,28.54,0,109.5,13.57,0.57,126.8
"2010-01-05 00:03:30",1564131,6.557,165.3,6.061,1.19,4.65,100.2038,-0.18,1.06,28.54,0,109.5,13.57,0.57,127.3
"2010-01-05 00:04:00",1564132,6.916,167,5.438,1.027,5.119,100.2038,-0.18,1.057,28.48,0,109.5,13.57,0.57,129.0
"2010-01-05 00:04:30",1564133,6.717,166.1,5.942,1.121,5.041,100.2038,-0.18,1.056,28.45,0,109.5,13.57,0.57,128.1
"2010-01-05 00:05:00",1564134,7.347,168.3,3.853,0.522,6.136,100.2035,-0.181,1.101,28.5,0,109.5,13.57,0.57,130.3
"2010-01-05 00:05:30",1564135,6.745,165.7,5.724,1.069,4.721,100.2015,-0.186,1.079,28.44,0,109.5,13.57,0.57,127.7
"2010-01-05 00:06:00",1564136,6.572,163.5,6.237,1.196,3.906,100.1962,-0.199,0.954,28.33,0,109.5,13.57,0.55,125.5
"2010-01-05 00:06:30",1564137,5.45,158.5,4.793,0.852,2.241,100.1891,-0.218,0.944,28.45,0,109.5,13.57,0.53,120.5
"2010-01-05 00:07:00",1564138,6.595,164,5.954,1.158,4.612,100.18,-0.241,1.044,28.69,0,109.5,13.57,0.51,126.0
"2010-01-05 00:07:30",1564139,7.196,167.6,3.864,0.749,6.148,100.1738,-0.256,1.051,28.75,0,109.5,13.58,0.49,129.6
"2010-01-05 00:08:00",1564140,7.198,167.7,3.486,0.646,6.269,100.1704,-0.265,1.099,28.93,0,109.5,13.58,0.49,129.7
"2010-01-05 00:08:30",1564141,7.039,168.5,3.007,0.754,5.754,100.1698,-0.267,1.091,29.05,0,109.5,13.58,0.48,130.5
"2010-01-05 00:09:00",1564142,5.742,160.7,5.884,1.157,2.979,100.1698,-0.267,0.945,28.97,0,109.5,13.58,0.48,122.7
"2010-01-05 00:09:30",1564143,5.831,161.5,5.943,1.202,3.098,100.1698,-0.267,0.925,28.93,0,109.5,13.58,0.48,123.5
"2010-01-05 00:10:00",1564144,5.72,161.4,6.035,1.128,3.582,100.1698,-0.267,0.969,28.98,0,109.5,13.58,0.48,123.4
"2010-01-05 00:10:30",1564145,6.868,166.1,5.277,0.847,5.909,100.1698,-0.267,1.014,29.15,0,109.5,13.58,0.48,128.1
"2010-01-05 00:11:00",1564146,7.144,165.8,4.439,0.482,6.606,100.1698,-0.267,1.07,29.25,0,109.5,13.58,0.48,127.8
"2010-01-05 00:11:30",1564147,7.14,164.9,4.024,0.531,5.868,100.1698,-0.267,1.057,29.32,0,109.5,13.58,0.48,126.9
"2010-01-05 00:12:00",1564148,6.506,161.8,5.4,1.16,4.638,100.1698,-0.267,1.027,29.5,0,109.5,13.58,0.48,123.8
"2010-01-05 00:12:30",1564149,5.965,158.1,5.968,1.108,3.036,100.1698,-0.267,0.897,29.66,0,109.5,13.58,0.48,120.1
"2010-01-05 00:13:00",1564150,5.61,156.7,5.848,1.024,2.46,100.1698,-0.267,0.891,29.73,0,109.5,13.58,0.48,118.7
"2010-01-05 00:13:30",1564151,6.864,163.7,5.516,1.121,5.209,100.1698,-0.267,1.009,29.96,0,109.6,13.59,0.48,125.7
"2010-01-05 00:14:00",1564152,7.154,166.6,1.777,0.842,6.072,100.169,-0.269,1.067,30.06,0,109.5,13.58,0.48,128.6
"2010-01-05 00:14:30",1564153,6.907,164.6,4.656,1.073,5.327,100.1594,-0.293,1.06,29.97,0,109.5,13.58,0.46,126.6
"2010-01-05 00:15:00",1564154,7.059,165,5.462,1.039,4.766,100.1497,-0.318,0.971,29.91,0,109.5,13.58,0.43,127.0
"2010-01-05 00:15:30",1564155,6.994,164.9,5.459,1.024,4.711,100.1412,-0.339,0.952,29.91,0,109.5,13.57,0.41,126.9
"2010-01-05 00:16:00",1564156,5.875,159,5.905,1.112,2.998,100.1361,-0.352,0.947,29.84,0,109.5,13.58,0.40,121.0
"2010-01-05 00:16:30",1564157,6.917,165.7,5.194,1.078,4.831,100.137,-0.35,0.982,29.8,0,109.5,13.57,0.40,127.7
"2010-01-05 00:17:00",1564158,6.606,163.6,6.215,1.16,4.206,100.137,-0.35,0.923,29.63,0,109.5,13.58,0.40,125.6
"2010-01-05 00:17:30",1564159,7.189,169.6,3.551,0.848,5.83,100.1395,-0.344,0.994,29.7,0,109.5,13.58,0.41,131.6
"2010-01-05 00:18:00",1564160,6.686,166.3,6.159,1.167,4.536,100.1421,-0.337,0.916,29.61,0,109.5,13.58,0.41,128.3
"2010-01-05 00:18:30",1564161,6.762,169,5.125,1.112,5.126,100.1438,-0.333,0.985,29.84,0,109.5,13.58,0.42,131.0
"2010-01-05 00:19:00",1564162,6.657,166.7,6.069,1.078,4.653,100.1455,-0.329,0.964,29.77,0,109.5,13.59,0.42,128.7
"2010-01-05 00:19:30",1564163,6.658,167.9,5.557,1.069,4.769,100.1478,-0.323,0.904,29.81,0,109.5,13.59,0.43,129.9
"2010-01-05 00:20:00",1564164,6.192,167,6.486,1.205,3.492,100.1486,-0.321,0.886,29.92,0,109.5,13.59,0.43,129.0
"2010-01-05 00:20:30",1564165,6.594,169.6,5.663,1.106,4.585,100.1489,-0.32,0.93,30,0,109.5,13.59,0.43,131.6
"2010-01-05 00:21:00",1564166,6.314,167.9,6.009,1.137,4.254,100.1506,-0.316,0.903,30.06,0,109.5,13.59,0.44,129.9
"2010-01-05 00:21:30",1564167,6.855,172.9,3.94,0.931,5.431,100.1517,-0.313,0.97,30.14,0,109.5,13.59,0.44,134.9
"2010-01-05 00:22:00",1564168,6.742,172.8,4.772,1.018,5.21,100.1495,-0.318,0.953,30.08,0,109.5,13.59,0.43,134.8
"2010-01-05 00:22:30",1564169,6.937,172.8,4.289,0.924,5.098,100.1484,-0.321,0.92,30.11,0,109.5,13.59,0.43,134.8
"2010-01-05 00:23:00",1564170,5.97,167.7,5.959,1.205,3.233,100.1489,-0.32,0.904,30.09,0,109.5,13.59,0.43,129.7
"2010-01-05 00:23:30",1564171,6.162,165.9,6.619,1.209,3.351,100.1512,-0.314,0.787,29.87,0,109.5,13.59,0.44,127.9
"2010-01-05 00:24:00",1564172,6.821,169.8,5.479,1.09,4.729,100.1461,-0.327,0.912,29.91,0,109.5,13.59,0.42,131.8
"2010-01-05 00:24:30",1564173,6.844,169.4,5.659,1.074,5.26,100.1441,-0.332,0.897,29.78,0,109.5,13.6,0.42,131.4
"2010-01-05 00:25:00",1564174,7.42,170.7,4.479,0.369,6.109,100.1433,-0.334,0.986,29.83,0,109.5,13.6,0.42,132.7
"2010-01-05 00:25:30",1564175,7.284,170.2,4.157,0.537,5.778,100.1438,-0.333,0.957,29.81,0,109.5,13.6,0.42,132.2
"2010-01-05 00:26:00",1564176,6.631,168.1,5.538,1.142,4.223,100.1421,-0.337,0.908,29.64,0,109.5,13.59,0.41,130.1
"2010-01-05 00:26:30",1564177,6.106,164.6,5.594,1.181,3.063,100.1427,-0.336,0.738,29.35,0,109.6,13.59,0.42,126.6
"2010-01-05 00:27:00",1564178,6.436,168.1,5.531,1.192,4.515,100.1427,-0.336,0.95,29.54,0,109.5,13.6,0.42,130.1
"2010-01-05 00:27:30",1564179,6.682,167.1,5.685,1.113,4.795,100.1433,-0.334,0.89,29.37,0,109.5,13.6,0.42,129.1
"2010-01-05 00:28:00",1564180,7.166,169.9,3.286,0.765,6.045,100.1447,-0.331,0.976,29.37,0,109.5,13.6,0.42,131.9
"2010-01-05 00:28:30",1564181,6.89,167.8,4.84,0.96,5.216,100.1461,-0.327,0.942,29.34,0,109.5,13.6,0.42,129.8
"2010-01-05 00:29:00",1564182,7.124,167.6,3.404,0.668,5.774,100.1419,-0.338,0.919,29.25,0,109.5,13.6,0.41,129.6
"2010-01-05 00:29:30",1564183,5.393,157.9,4.855,0.893,2.08,100.1427,-0.336,0.74,29.05,0,109.5,13.6,0.42,119.9
"2010-01-05 00:30:00",1564184,6.105,161.7,5.787,1.26,3.608,100.1424,-0.336,0.796,29.06,0,109.5,13.6,0.41,123.7
"2010-01-05 00:30:30",1564185,6.079,161.5,6.173,1.232,3.628,100.1396,-0.344,0.907,29.18,0,109.5,13.59,0.41,123.5
"2010-01-05 00:31:00",1564186,7.205,164.9,4.891,0.817,5.76,100.1393,-0.344,0.957,29.15,0,109.5,13.59,0.41,126.9
"2010-01-05 00:31:30",1564187,7.121,164.4,4.532,0.85,5.509,100.1373,-0.349,0.917,29.09,0,109.5,13.59,0.40,126.4
"2010-01-05 00:32:00",1564188,7.092,165.1,4.062,0.919,5.431,100.1368,-0.351,0.931,29.06,0,109.5,13.59,0.40,127.1
"2010-01-05 00:32:30",1564189,6.804,163.3,5.852,1.079,5.373,100.1359,-0.353,0.965,29.05,0,109.5,13.59,0.40,125.3
"2010-01-05 00:33:00",1564190,7.208,165.3,4.628,0.787,5.558,100.1365,-0.352,0.941,29.05,0,109.5,13.59,0.40,127.3
"2010-01-05 00:33:30",1564191,6.594,163.2,5.778,1.169,4.452,100.1359,-0.353,0.85,28.93,0,109.5,13.59,0.40,125.2
"2010-01-05 00:34:00",1564192,5.697,158.5,4.747,0.994,2.294,100.1359,-0.353,0.79,28.89,0,109.5,13.59,0.40,120.5
"2010-01-05 00:34:30",1564193,7.325,168.3,2.44,0.718,5.851,100.1359,-0.353,0.883,29.03,0,109.5,13.59,0.40,130.3
"2010-01-05 00:35:00",1564194,7.106,166.6,5.091,0.934,5.404,100.1359,-0.353,0.904,29.1,0,109.5,13.6,0.40,128.6
"2010-01-05 00:35:30",1564195,7.136,168.8,5.272,1.048,5.703,100.1359,-0.353,0.935,29.22,0,109.5,13.6,0.40,130.8
"2010-01-05 00:36:00",1564196,7.082,168.9,4.645,0.992,5.634,100.1359,-0.353,0.91,29.29,0,109.5,13.6,0.40,130.9
"2010-01-05 00:36:30",1564197,7.468,169.8,3.493,0.473,5.839,100.1359,-0.353,0.954,29.3,0,109.5,13.6,0.40,131.8
"2010-01-05 00:37:00",1564198,7.023,167.4,5.548,1.017,5.052,100.1359,-0.353,0.932,29.25,0,109.5,13.6,0.40,129.4
"2010-01-05 00:37:30",1564199,6.138,164.1,5.473,1.132,2.545,100.1359,-0.353,0.713,29.18,0,109.5,13.6,0.40,126.1
"2010-01-05 00:38:00",1564200,6.67,167.4,5.942,1.192,3.968,100.1359,-0.353,0.829,29.46,0,109.5,13.6,0.40,129.4
"2010-01-05 00:38:30",1564201,6.871,169.4,6.219,1.127,4.632,100.1359,-0.353,0.821,29.46,0,109.5,13.6,0.40,131.4
"2010-01-05 00:39:00",1564202,7.155,172.2,4.692,0.988,5.556,100.1359,-0.353,0.932,29.73,0,109.5,13.6,0.40,134.2
"2010-01-05 00:39:30",1564203,7.487,173.5,3.225,0.517,6.385,100.1359,-0.353,0.948,29.72,0,109.5,13.6,0.40,135.5
"2010-01-05 00:40:00",1564204,7.014,171.4,4.959,1.021,5.125,100.1359,-0.353,0.944,29.65,0,109.5,13.6,0.40,133.4
"2010-01-05 00:40:30",1564205,6.856,171.4,5.625,1.134,4.839,100.1359,-0.353,0.885,29.71,0,109.5,13.6,0.40,133.4
"2010-01-05 00:41:00",1564206,6.663,170.2,6.143,1.159,4.318,100.1359,-0.353,0.881,29.79,0,109.5,13.6,0.40,132.2
"2010-01-05 00:41:30",1564207,6.867,170.7,5.762,1.185,4.036,100.1359,-0.353,0.825,29.69,0,109.5,13.6,0.40,132.7
"2010-01-05 00:42:00",1564208,6.869,171.4,5.831,1.13,4.534,100.1359,-0.353,0.898,29.67,0,109.5,13.6,0.40,133.4
"2010-01-05 00:42:30",1564209,7.486,174.2,3.139,0.751,6.074,100.1359,-0.353,0.939,29.65,0,109.5,13.61,0.40,136.2
"2010-01-05 00:43:00",1564210,7.034,171.6,5.446,1.038,5.397,100.1359,-0.353,0.902,29.52,0,109.5,13.61,0.40,133.6
"2010-01-05 00:43:30",1564211,7.015,171.5,5.78,1.058,4.958,100.1359,-0.353,0.874,29.43,0,109.5,13.61,0.40,133.5
"2010-01-05 00:44:00",1564212,6.821,171.4,5.809,1.147,4.729,100.1359,-0.353,0.913,29.44,0,109.5,13.61,0.40,133.4
"2010-01-05 00:44:30",1564213,6.838,171.8,5.67,1.134,4.835,100.1359,-0.353,0.852,29.34,0,109.5,13.61,0.40,133.8
"2010-01-05 00:45:00",1564214,6.869,171.6,5.476,1.075,4.649,100.1359,-0.353,0.936,29.4,0,109.5,13.61,0.40,133.6
"2010-01-05 00:45:30",1564215,6.641,171.3,5.903,1.168,4.366,100.1359,-0.353,0.871,29.28,0,109.5,13.61,0.40,133.3
"2010-01-05 00:46:00",1564216,6.639,171,5.949,1.16,4.197,100.1359,-0.353,0.837,29.24,0,109.5,13.61,0.40,133.0
"2010-01-05 00:46:30",1564217,6.633,172.7,5.34,1.166,5.113,100.1359,-0.353,0.905,29.24,0,109.5,13.6,0.40,134.7
"2010-01-05 00:47:00",1564218,6.918,172.6,5.751,1.016,5.605,100.1359,-0.353,0.925,29.21,0,109.5,13.6,0.40,134.6
"2010-01-05 00:47:30",1564219,6.619,170.9,6.177,1.144,4.799,100.1359,-0.353,0.873,29.14,0,109.5,13.6,0.40,132.9
"2010-01-05 00:48:00",1564220,7.095,174.6,3.845,0.783,5.441,100.1359,-0.353,0.901,29.12,0,109.5,13.6,0.40,136.6
"2010-01-05 00:48:30",1564221,5.96,169.6,6.312,1.111,3.276,100.1362,-0.352,0.791,28.98,0,109.5,13.6,0.40,131.6
"2010-01-05 00:49:00",1564222,6.818,172.3,5.896,1.143,4.408,100.1362,-0.352,0.832,29.02,0,109.5,13.6,0.40,134.3
"2010-01-05 00:49:30",1564223,6.501,172.4,6.197,1.117,4.989,100.1365,-0.352,0.956,29.12,0,109.5,13.6,0.40,134.4
"2010-01-05 00:50:00",1564224,7.265,177.2,3.381,0.672,6.277,100.1365,-0.352,0.96,29.09,0,109.5,13.6,0.40,139.2
"2010-01-05 00:50:30",1564225,7.284,176.2,4.286,0.399,6.325,100.1365,-0.352,0.976,29.05,0,109.6,13.6,0.40,138.2
"2010-01-05 00:51:00",1564226,6.672,172.9,6.542,1.111,4.491,100.1365,-0.352,0.882,28.95,0,109.5,13.6,0.40,134.9
"2010-01-05 00:51:30",1564227,6.124,169.1,5.768,1.108,2.969,100.137,-0.35,0.803,28.88,0,109.5,13.61,0.40,131.1
"2010-01-05 00:52:00",1564228,5.89,170.6,5.927,1.149,3.041,100.1368,-0.351,0.862,28.93,0,109.5,13.61,0.40,132.6
"2010-01-05 00:52:30",1564229,6.547,171.6,6.047,1.185,4.697,100.1376,-0.349,0.907,28.94,0,109.5,13.61,0.40,133.6
"2010-01-05 00:53:00",1564230,7.2,174.1,4.802,0.824,6.091,100.137,-0.35,0.963,28.97,0,109.5,13.62,0.40,136.1
"2010-01-05 00:53:30",1564231,7.07,174.1,3.938,0.842,5.876,100.1388,-0.346,0.968,29,0,109.5,13.62,0.41,136.1
"2010-01-05 00:54:00",1564232,7.14,173.2,3.871,0.631,5.731,100.1382,-0.347,0.978,28.98,0,109.5,13.62,0.40,135.2
"2010-01-05 00:54:30",1564233,7.017,172.3,4.014,0.659,5.466,100.1376,-0.349,0.993,28.95,0,109.5,13.61,0.40,134.3
"2010-01-05 00:55:00",1564234,5.412,163.1,5.51,1.032,2.556,100.1399,-0.343,0.848,28.86,0,109.5,13.61,0.41,125.1
"2010-01-05 00:55:30",1564235,5.381,163.1,5.363,1.062,2.209,100.1368,-0.351,0.744,28.73,0,109.5,13.61,0.40,125.1
"2010-01-05 00:56:00",1564236,6.219,168.3,5.943,1.158,4.383,100.1385,-0.347,0.865,28.83,0,109.5,13.62,0.40,130.3
"2010-01-05 00:56:30",1564237,6.654,171.2,4.012,0.927,5.728,100.1399,-0.343,0.991,28.99,0,109.5,13.62,0.41,133.2
"2010-01-05 00:57:00",1564238,6.727,170.5,3.852,0.77,6.036,100.1424,-0.336,0.986,28.96,0,109.5,13.62,0.41,132.5
"2010-01-05 00:57:30",1564239,6.739,169.3,3.446,0.686,5.686,100.1419,-0.338,0.955,28.96,0,109.5,13.62,0.41,131.3
"2010-01-05 00:58:00",1564240,6.074,165.9,6.029,1.13,4.233,100.1416,-0.339,0.867,28.88,0,109.5,13.62,0.41,127.9
"2010-01-05 00:58:30",1564241,5.266,162.4,5.729,1.163,2.421,100.1424,-0.336,0.699,28.71,0,109.5,13.62,0.41,124.4
"2010-01-05 00:59:00",1564242,5.71,165.7,6.268,1.23,3.623,100.1439,-0.333,0.913,28.96,0,109.5,13.62,0.42,127.7
"2010-01-05 00:59:30",1564243,5.463,164.9,6.049,1.212,3.609,100.1433,-0.334,0.877,28.93,0,109.5,13.62,0.42,126.9
"2010-01-05 01:00:00",1564244,6.508,168.7,3.876,0.756,5.517,100.1441,-0.332,0.983,29.05,0,109.5,13.62,0.42,130.7
"2010-01-05 01:00:30",1564245,6.278,167.6,4.796,0.932,5.079,100.141,-0.34,0.906,28.97,0,109.5,13.62,0.41,129.6
"2010-01-05 01:01:00",1564246,6.235,167.5,4.965,0.922,5.679,100.1351,-0.355,0.898,29,0,109.5,13.62,0.40,129.5
"2010-01-05 01:01:30",1564247,5.012,160.5,5.499,1.078,2.581,100.132,-0.363,0.812,28.91,0,109.5,13.62,0.39,122.5
"2010-01-05 01:02:00",1564248,5.47,162.6,6.271,1.204,3.38,100.1303,-0.367,0.863,29.02,0,109.5,13.62,0.38,124.6
"2010-01-05 01:02:30",1564249,5.191,162.2,6.136,1.18,3.322,100.1314,-0.365,0.841,29.06,0,109.5,13.62,0.39,124.2
"2010-01-05 01:03:00",1564250,5.709,164.3,5.797,1.159,4.174,100.1266,-0.377,0.925,29.18,0,109.5,13.62,0.37,126.3
"2010-01-05 01:03:30",1564251,6.044,165.4,5.565,1.043,5.002,100.1218,-0.389,0.896,29.18,0,109.5,13.62,0.36,127.4
"2010-01-05 01:04:00",1564252,5.963,166,5.295,1.09,5.439,100.1195,-0.395,0.913,29.19,0,109.5,13.62,0.36,128.0
"2010-01-05 01:04:30",1564253,5.586,164.3,5.967,1.181,4.696,100.1178,-0.399,0.865,29.17,0,109.5,13.62,0.35,126.3
"2010-01-05 01:05:00",1564254,4.924,161.7,5.946,1.15,3.346,100.1184,-0.398,0.902,29.22,0,109.5,13.62,0.35,123.7
"2010-01-05 01:05:30",1564255,5.917,166.5,5.859,1.03,4.495,100.1189,-0.396,0.827,29.16,0,109.5,13.62,0.35,128.5
"2010-01-05 01:06:00",1564256,5.22,162.8,5.856,1.148,2.722,100.1195,-0.395,0.772,29.11,0,109.5,13.62,0.36,124.8
"2010-01-05 01:06:30",1564257,6.005,168.4,5.763,1.028,4.954,100.1209,-0.391,0.84,29.16,0,109.5,13.62,0.36,130.4
"2010-01-05 01:07:00",1564258,5.721,168.4,5.941,1.142,4.603,100.1209,-0.391,0.875,29.14,0,109.5,13.62,0.36,130.4
"2010-01-05 01:07:30",1564259,6.304,172.9,1.628,0.832,5.819,100.1232,-0.385,0.9,29.1,0,109.4,13.62,0.37,134.9
"2010-01-05 01:08:00",1564260,5.489,167.9,5.96,1.184,4.156,100.1209,-0.391,0.857,29.09,0,109.5,13.62,0.36,129.9
"2010-01-05 01:08:30",1564261,5.464,169.3,5.851,1.191,3.791,100.1198,-0.394,0.814,29.05,0,109.5,13.62,0.36,131.3
"2010-01-05 01:09:00",1564262,5.194,167.3,6.203,1.184,3.121,100.1158,-0.404,0.774,29,0,109.5,13.62,0.35,129.3
"2010-01-05 01:09:30",1564263,5.764,169.4,5.941,1.135,4.326,100.1085,-0.423,0.812,29.05,0,109.5,13.62,0.33,131.4
"2010-01-05 01:10:00",1564264,5.823,170.1,6.046,1.113,4.726,100.1062,-0.429,0.84,29.09,0,109.5,13.63,0.32,132.1
"2010-01-05 01:10:30",1564265,6.588,174,3.543,0.485,5.919,100.1056,-0.43,0.861,29.16,0,109.5,13.63,0.32,136.0
"2010-01-05 01:11:00",1564266,5.37,169.1,6.277,1.148,3.632,100.1065,-0.428,0.833,29.21,0,109.5,13.63,0.32,131.1
"2010-01-05 01:11:30",1564267,5.66,171.6,6.207,1.193,3.856,100.1062,-0.429,0.74,29.2,0,109.5,13.62,0.32,133.6
"2010-01-05 01:12:00",1564268,5.439,171.9,6.224,1.215,3.681,100.1048,-0.432,0.819,29.38,0,109.5,13.63,0.32,133.9
"2010-01-05 01:12:30",1564269,5.901,174.1,5.83,1.141,4.13,100.1022,-0.439,0.741,29.5,0,109.4,13.63,0.31,136.1
"2010-01-05 01:13:00",1564270,6.53,177.4,4.424,0.581,5.918,100.1,-0.445,0.823,29.77,0,109.5,13.63,0.31,139.4
"2010-01-05 01:13:30",1564271,5.805,173.6,5.63,1.143,4.657,100.0991,-0.447,0.82,29.86,0,109.5,13.63,0.30,135.6
"2010-01-05 01:14:00",1564272,6.264,175.8,4.343,0.922,5.45,100.0988,-0.448,0.845,29.93,0,109.5,13.63,0.30,137.8
"2010-01-05 01:14:30",1564273,5.792,172.4,5.82,1.161,3.85,100.0963,-0.454,0.728,29.94,0,109.5,13.63,0.30,134.4
"2010-01-05 01:15:00",1564274,5.506,170.3,6.2,1.151,3.31,100.0952,-0.457,0.753,30.08,0,109.5,13.63,0.29,132.3
"2010-01-05 01:15:30",1564275,6.11,173.9,5.9,1.123,4.5,100.0946,-0.458,0.735,30.23,0,109.5,13.62,0.29,135.9
"2010-01-05 01:16:00",1564276,6.152,174.5,5.507,1.079,5.064,100.0952,-0.457,0.798,30.44,0,109.5,13.63,0.29,136.5
"2010-01-05 01:16:30",1564277,6.359,175.9,4.857,0.919,5.576,100.0949,-0.458,0.836,30.56,0,109.5,13.63,0.29,137.9
"2010-01-05 01:17:00",1564278,6.372,177.5,4.273,0.843,5.693,100.0943,-0.459,0.865,30.68,0,109.5,13.63,0.29,139.5
"2010-01-05 01:17:30",1564279,6.32,178.8,4.793,0.909,5.473,100.0949,-0.458,0.752,30.57,0,109.5,13.63,0.29,140.8
"2010-01-05 01:18:00",1564280,4.994,170.9,5.553,1.07,2.146,100.0946,-0.458,0.667,30.46,0,109.5,13.63,0.29,132.9
"2010-01-05 01:18:30",1564281,5.477,173.2,6.082,1.208,3.374,100.0952,-0.457,0.709,30.6,0,109.5,13.63,0.29,135.2
"2010-01-05 01:19:00",1564282,5.498,173.8,6.086,1.231,3.691,100.0952,-0.457,0.817,30.83,0,109.5,13.63,0.29,135.8
"2010-01-05 01:19:30",1564283,6.15,177.8,5.198,0.99,5.533,100.094,-0.46,0.829,30.92,0,109.5,13.63,0.29,139.8
"2010-01-05 01:20:00",1564284,6.231,178.8,4.685,0.927,5.831,100.0946,-0.458,0.82,30.95,0,109.5,13.63,0.29,140.8
"2010-01-05 01:20:30",1564285,6.392,179.7,4.393,0.917,5.45,100.0963,-0.454,0.795,30.91,0,109.5,13.62,0.30,141.7
"2010-01-05 01:21:00",1564286,5.669,175.5,6.037,1.164,3.696,100.0966,-0.453,0.774,30.79,0,109.5,13.62,0.30,137.5
"2010-01-05 01:21:30",1564287,5.472,174.7,6.239,1.167,3.111,100.0974,-0.451,0.729,30.67,0,109.5,13.62,0.30,136.7
"2010-01-05 01:22:00",1564288,6.269,178.1,6.05,1.149,4.381,100.0988,-0.448,0.78,30.69,0,109.5,13.62,0.30,140.1
"2010-01-05 01:22:30",1564289,6.732,179.8,3.988,0.822,5.983,100.0977,-0.45,0.821,30.77,0,109.5,13.62,0.30,141.8
"2010-01-05 01:23:00",1564290,6.691,178.7,4.368,0.673,6.342,100.1014,-0.441,0.863,30.87,0,109.5,13.62,0.31,140.7
"2010-01-05 01:23:30",1564291,6.451,178.3,2.135,0.824,5.686,100.1028,-0.437,0.849,31.08,0,109.4,13.62,0.31,140.3
"2010-01-05 01:24:00",1564292,5.853,174.9,5.699,1.139,4.479,100.1003,-0.444,0.786,31.22,0,109.5,13.63,0.31,136.9
"2010-01-05 01:24:30",1564293,5.537,172,6.081,1.194,2.547,100.0991,-0.447,0.596,31.04,0,109.5,13.63,0.30,134.0
"2010-01-05 01:25:00",1564294,5.377,172.9,6.524,1.223,2.647,100.0986,-0.448,0.694,31.08,0,109.5,13.63,0.30,134.9
"2010-01-05 01:25:30",1564295,6.026,176.8,6.152,1.117,4.683,100.0974,-0.451,0.768,31.1,0,109.5,13.63,0.30,138.8
"2010-01-05 01:26:00",1564296,6.443,179.4,4.437,0.861,5.902,100.0966,-0.453,0.832,31.29,0,109.5,13.63,0.30,141.4
"2010-01-05 01:26:30",1564297,6.612,180.8,3.219,0.632,6.129,100.0983,-0.449,0.847,31.35,0,109.5,13.63,0.30,142.8
"2010-01-05 01:27:00",1564298,6.521,180.5,3.885,0.651,5.7,100.0994,-0.446,0.851,31.34,0,109.5,13.63,0.30,142.5
"2010-01-05 01:27:30",1564299,5.111,174.3,5.588,1.154,2.475,100.1017,-0.44,0.597,31.06,0,109.5,13.63,0.31,136.3
"2010-01-05 01:28:00",1564300,5.195,176.3,6.228,1.213,2.906,100.1017,-0.44,0.636,31.07,0,109.5,13.63,0.31,138.3
"2010-01-05 01:28:30",1564301,5.284,177.9,6.249,1.213,3.659,100.1006,-0.443,0.729,31.27,0,109.5,13.63,0.31,139.9
"2010-01-05 01:29:00",1564302,6.479,183.2,3.353,0.738,5.918,100.0991,-0.447,0.854,31.44,0,109.5,13.63,0.30,145.2
"2010-01-05 01:29:30",1564303,6.616,183.2,3.263,0.641,6.227,100.1,-0.445,0.834,31.39,0,109.5,13.63,0.31,145.2
"2010-01-05 01:30:00",1564304,6.736,181.6,3.78,0.482,5.858,100.1003,-0.444,0.83,31.1,0,109.5,13.63,0.31,143.6
"2010-01-05 01:30:30",1564305,5.283,173.2,6.163,1.196,2.992,100.102,-0.44,0.752,30.57,0,109.5,13.63,0.31,135.2
"2010-01-05 01:31:00",1564306,5.389,174.2,5.575,1.184,2.777,100.1011,-0.442,0.596,30.2,0,109.5,13.63,0.31,136.2
"2010-01-05 01:31:30",1564307,5.253,172.8,5.754,1.16,2.955,100.1017,-0.44,0.751,30.3,0,109.5,13.63,0.31,134.8
"2010-01-05 01:32:00",1564308,6.334,176.9,4.979,0.92,5.246,100.1011,-0.442,0.789,30.3,0,109.5,13.63,0.31,138.9
"2010-01-05 01:32:30",1564309,6.391,176.5,4.8,0.84,5.464,100.0972,-0.452,0.806,30.34,0,109.5,13.64,0.30,138.5
"2010-01-05 01:33:00",1564310,5.972,173.3,5.504,1.149,4.587,100.0926,-0.463,0.785,30.17,0,109.5,13.63,0.29,135.3
"2010-01-05 01:33:30",1564311,5.881,173,5.843,1.143,4.48,100.0906,-0.468,0.761,30.05,0,109.4,13.63,0.28,135.0
"2010-01-05 01:34:00",1564312,5.611,171.7,5.967,1.159,3.796,100.0861,-0.48,0.61,29.84,0,109.5,13.63,0.27,133.7
"2010-01-05 01:34:30",1564313,5.216,170.5,6.157,1.181,3.265,100.0841,-0.485,0.664,29.84,0,109.5,13.63,0.27,132.5
"2010-01-05 01:35:00",1564314,5.598,173.5,5.892,1.132,4.175,100.0833,-0.487,0.749,29.96,0,109.5,13.63,0.26,135.5
"2010-01-05 01:35:30",1564315,5.429,171.3,5.915,1.188,3.967,100.0819,-0.491,0.723,29.97,0,109.5,13.63,0.26,133.3
"2010-01-05 01:36:00",1564316,5.402,172.1,5.954,1.212,4.11,100.079,-0.498,0.761,29.91,0,109.5,13.63,0.25,134.1
"2010-01-05 01:36:30",1564317,5.888,174.6,5.774,1.073,4.864,100.077,-0.503,0.737,29.89,0,109.5,13.63,0.25,136.6
"2010-01-05 01:37:00",1564318,5.523,172.4,6.249,1.201,4.225,100.0753,-0.508,0.729,29.82,0,109.5,13.63,0.24,134.4
"2010-01-05 01:37:30",1564319,5.728,173.6,5.988,1.09,4.488,100.0734,-0.513,0.717,29.75,0,109.5,13.63,0.24,135.6
"2010-01-05 01:38:00",1564320,5.697,173.8,5.799,1.137,4.139,100.0697,-0.522,0.683,29.57,0,109.5,13.63,0.23,135.8
"2010-01-05 01:38:30",1564321,4.609,168.4,5.054,0.986,2.315,100.068,-0.526,0.639,29.49,0,109.5,13.63,0.22,130.4
"2010-01-05 01:39:00",1564322,5.753,174.2,5.715,1.143,4.351,100.0685,-0.525,0.704,29.49,0,109.5,13.63,0.23,136.2
"2010-01-05 01:39:30",1564323,5.626,173.3,6.117,1.192,4.47,100.0685,-0.525,0.722,29.56,0,109.5,13.63,0.23,135.3
"2010-01-05 01:40:00",1564324,6.207,177.5,3.937,0.919,5.254,100.068,-0.526,0.77,29.55,0,109.5,13.63,0.22,139.5
"2010-01-05 01:40:30",1564325,5.722,173.4,6.264,1.153,3.928,100.068,-0.526,0.672,29.45,0,109.5,13.63,0.22,135.4
"2010-01-05 01:41:00",1564326,5.837,175,5.908,1.123,4.184,100.068,-0.526,0.701,29.53,0,109.5,13.64,0.22,137.0
"2010-01-05 01:41:30",1564327,5.246,170.1,5.75,1.175,2.969,100.068,-0.526,0.698,29.76,0,109.5,13.64,0.22,132.1
"2010-01-05 01:42:00",1564328,6.161,175.5,5.604,1.11,4.683,100.068,-0.526,0.709,30.09,0,109.5,13.64,0.22,137.5
"2010-01-05 01:42:30",1564329,6.035,173.7,6.095,1.127,4.942,100.0683,-0.526,0.74,30.28,0,109.5,13.64,0.22,135.7
"2010-01-05 01:43:00",1564330,6.722,175.6,3.952,0.632,6.114,100.0683,-0.526,0.766,30.48,0,109.5,13.64,0.22,137.6
"2010-01-05 01:43:30",1564331,6.203,174.2,5.993,1.06,4.583,100.068,-0.526,0.727,30.46,0,109.5,13.64,0.22,136.2
"2010-01-05 01:44:00",1564332,5.859,175,6.241,1.173,3.784,100.068,-0.526,0.726,30.7,0,109.5,13.64,0.22,137.0
"2010-01-05 01:44:30",1564333,5.239,172.3,4.633,0.97,1.984,100.068,-0.526,0.563,30.65,0,109.5,13.64,0.22,134.3
"2010-01-05 01:45:00",1564334,6.335,178.9,5.863,1.138,4.387,100.0683,-0.526,0.717,30.86,0,109.5,13.64,0.22,140.9
"2010-01-05 01:45:30",1564335,6.582,179.1,5.652,1.04,5.423,100.068,-0.526,0.737,30.5,0,109.5,13.64,0.22,141.1
"2010-01-05 01:46:00",1564336,6.962,181.1,3.779,0.752,6.148,100.0683,-0.526,0.764,30.18,0,109.5,13.64,0.22,143.1
"2010-01-05 01:46:30",1564337,6.843,182.1,3.28,0.845,5.615,100.0691,-0.523,0.807,30.43,0,109.5,13.64,0.23,144.1